Flag for United Kingdom Weather past 2 weeks in Crawley, England, United Kingdom

Now
41 °F

Passing clouds.


Feels Like: 37 °F
Forecast: 38 / 53 °F
Wind: 6 mph from North

Location: London / Gatwick Airport

Current Time: Apr 27, 2015 at 2:01:50 AM

Latest Report: Apr 27, 2015 at 1:20 AM


Visibility: N/A

Pressure: 29.80 "Hg

Humidity: 93%

Dew point: 39 °F

Location of CrawleyLocation

Historic Weather in Crawley — Graph

°F

Crawley temperature yesterday

Maximum temperature yesterday: 52 °F (at 12:20 AM)
Minimum temperature yesterday: 39 °F (at 11:50 PM)
Average temperature yesterday: 49 °F

Past Weeks' High & Low Weather Summary

 TemperatureHumidityPressure
High75 °F (Apr 15, 2:20 PM)100% (Apr 12, 3:50 AM)30.54 "Hg (Apr 12, 3:50 AM)
Low32 °F (Apr 12, 3:50 AM)33% (Apr 15, 5:50 PM)29.68 "Hg (Apr 25, 3:20 PM)
Average51 °F73%30.17 "Hg
* Reported Apr 12 12:20 AM — Apr 27 12:50 AM, Crawley, Weather by CustomWeather, © 2015

Note: Actual official high and low records may vary slightly from our data, if they occured in-between our weather recording intervals... More about our weather records

Advertising

Crawley weather history for previous 24 hours

 ConditionsComfort  
Time TempWeatherWind HumidityBarometerVisibility
12:50 AM
Mon, Apr 27
37 °FPassing clouds.6 mph100%29.80 "Hg4 mi
12:20 AM41 °FClear.5 mph93%29.80 "Hg10 mi
11:50 PM
Sun, Apr 26
39 °FClear.No wind93%29.80 "Hg10 mi
11:20 PM41 °FClear.2 mph87%29.80 "Hg10 mi
10:50 PM43 °FClear.5 mph87%29.80 "Hg10 mi
10:20 PM45 °FClear.6 mph87%29.80 "Hg10 mi
9:50 PM46 °FPassing clouds.7 mph82%29.80 "HgN/A
9:20 PM48 °FPassing clouds.6 mph76%29.77 "HgN/A
8:50 PM48 °FPassing clouds.7 mph76%29.77 "HgN/A
8:20 PM48 °FScattered clouds.7 mph82%29.77 "HgN/A
7:50 PM48 °FPartly sunny.8 mph82%29.77 "HgN/A
7:20 PM48 °FPartly sunny.8 mph82%29.74 "HgN/A
6:50 PM50 °FScattered clouds.8 mph76%29.77 "HgN/A
6:20 PM50 °FPartly sunny.12 mph76%29.74 "HgN/A
5:50 PM50 °FPartly sunny.9 mph76%29.74 "HgN/A
5:20 PM50 °FPartly sunny.9 mph76%29.74 "HgN/A
4:50 PM50 °FPartly sunny.12 mph82%29.74 "HgN/A
4:20 PM50 °FBroken clouds.12 mph82%29.74 "HgN/A
3:50 PM50 °FPartly sunny.9 mph82%29.74 "HgN/A
3:20 PM48 °FLow clouds.10 mph87%29.77 "HgN/A
2:50 PM48 °FPartly sunny.10 mph87%29.77 "HgN/A
2:20 PM48 °FPartly sunny.9 mph87%29.77 "HgN/A
1:50 PM48 °FPartly sunny.12 mph87%29.77 "HgN/A
1:20 PM48 °FPartly sunny.10 mph87%29.77 "HgN/A
12:50 PM48 °FPartly sunny.9 mph87%29.77 "HgN/A
12:20 PM48 °FPartly sunny.8 mph87%29.77 "HgN/A
11:50 AM48 °FPartly sunny.10 mph87%29.77 "HgN/A
11:20 AM48 °FPartly sunny.9 mph94%29.77 "HgN/A
10:50 AM48 °FPartly sunny.9 mph94%29.74 "HgN/A
10:20 AM48 °FPartly sunny.9 mph94%29.74 "HgN/A
9:50 AM48 °FPartly sunny.10 mph94%29.74 "Hg5 mi
9:20 AM48 °FDrizzle. Partly sunny.13 mph100%29.74 "Hg2 mi
8:50 AM48 °FDrizzle. Partly sunny.8 mph100%29.74 "Hg2 mi
8:20 AM48 °FDrizzle. Partly sunny.10 mph100%29.74 "Hg2 mi
7:50 AM48 °FDrizzle. Partly sunny.10 mph100%29.74 "Hg2 mi
7:20 AM48 °FDrizzle. Partly sunny.9 mph100%29.74 "Hg2 mi
6:50 AM50 °FDrizzle. Fog.6 mph94%29.71 "Hg3 mi
6:20 AM50 °FPassing clouds.8 mph94%29.71 "Hg4 mi
5:50 AM50 °FPartly cloudy.7 mph100%29.68 "Hg4 mi
5:20 AM52 °FPartly cloudy.5 mph94%29.68 "Hg4 mi
4:50 AM52 °FPartly cloudy.6 mph94%29.68 "Hg4 mi
4:20 AM52 °FPassing clouds.6 mph94%29.68 "Hg5 mi
3:50 AM52 °FPassing clouds.7 mph94%29.68 "Hg4 mi
3:20 AM52 °FPassing clouds.6 mph100%29.71 "Hg3 mi
2:50 AM52 °FPassing clouds.6 mph100%29.71 "Hg4 mi
2:20 AM52 °FFog.5 mph94%29.71 "Hg3 mi
Weather by CustomWeather, © 2015

See weather overviewHow to use our weather pages